RYR62XJ LOWK-LEPA

Flight info

Callsign RYR62XJ
Flight time N/A
Altitude 39000
Route BERTA DCT RIFEN DCT OSLOP DCT BENUS DCT UNITA DCT RARQU DCT BALEN UT250 RIXOT
Aircraft B738/M-SDE2E3FGHIRWXY/LB1

Departure

Time 2026-05-05 16:26
Airport Klagenfurt Airport (LOWK)

Arrival

Time N/A
Airport Palma de Mallorca Airport (LEPA)
Time Latitude Longitude Altitude Speed Heading
2026-05-05 16:08 46.64795 14.32553 1478 ft 0 kts 76°
2026-05-05 16:20 46.64796 14.32597 1477 ft 4 kts 116°
2026-05-05 16:21 46.64675 14.32705 1473 ft 16 kts 140°
2026-05-05 16:22 46.64402 14.33027 1467 ft 20 kts 107°
2026-05-05 16:22 46.64303 14.33521 1465 ft 29 kts 106°
2026-05-05 16:23 46.64171 14.34174 1459 ft 38 kts 107°
2026-05-05 16:23 46.64091 14.34565 1455 ft 41 kts 106°
2026-05-05 16:23 46.63954 14.35268 1446 ft 25 kts 105°
2026-05-05 16:24 46.63938 14.35420 1445 ft 5 kts 71°
2026-05-05 16:24 46.63933 14.35438 1445 ft 1 kts 173°
2026-05-05 16:24 46.63925 14.35404 1445 ft 2 kts 274°
2026-05-05 16:25 46.63930 14.35374 1445 ft 8 kts 285°
2026-05-05 16:25 46.64209 14.33984 1463 ft 130 kts 285°
2026-05-05 16:25 46.64506 14.32497 1495 ft 175 kts 284°
2026-05-05 16:26 46.65098 14.29158 2723 ft 177 kts 280°
2026-05-05 16:26 46.65589 14.25610 3918 ft 183 kts 279°
2026-05-05 16:27 46.65806 14.23839 4599 ft 175 kts 272°
2026-05-05 16:27 46.65480 14.22164 4921 ft 187 kts 223°
2026-05-05 16:27 46.64251 14.21592 5270 ft 196 kts 167°
2026-05-05 16:27 46.63084 14.22481 5857 ft 195 kts 138°
2026-05-05 16:28 46.62233 14.24011 6478 ft 192 kts 125°
2026-05-05 16:28 46.61505 14.25587 7119 ft 187 kts 122°
2026-05-05 16:28 46.60807 14.27185 7620 ft 191 kts 123°
2026-05-05 16:28 46.60086 14.28808 8099 ft 197 kts 123°
2026-05-05 16:29 46.59316 14.30531 8475 ft 209 kts 123°
2026-05-05 16:29 46.58505 14.32352 8846 ft 222 kts 123°
2026-05-05 16:29 46.57633 14.34307 9175 ft 240 kts 122°
2026-05-05 16:29 46.56688 14.36426 9536 ft 259 kts 122°
2026-05-05 16:30 46.55687 14.38668 10021 ft 274 kts 122°
2026-05-05 16:30 46.54625 14.41046 10495 ft 286 kts 122°
2026-05-05 16:30 46.53530 14.43495 10971 ft 297 kts 122°
2026-05-05 16:30 46.52388 14.46044 11444 ft 311 kts 122°
2026-05-05 16:31 46.51186 14.48727 11922 ft 324 kts 122°
2026-05-05 16:31 46.49841 14.51458 12398 ft 337 kts 131°
2026-05-05 16:31 46.48050 14.53654 12868 ft 348 kts 149°
2026-05-05 16:31 46.45757 14.54912 13349 ft 357 kts 170°
2026-05-05 16:32 46.43286 14.54999 13823 ft 365 kts 189°
2026-05-05 16:32 46.40842 14.53916 14301 ft 371 kts 208°
2026-05-05 16:32 46.38807 14.51684 14776 ft 375 kts 228°
2026-05-05 16:32 46.37107 14.48777 15236 ft 382 kts 232°
2026-05-05 16:33 46.35426 14.45786 15792 ft 387 kts 232°
2026-05-05 16:33 46.33706 14.42774 16392 ft 390 kts 232°
2026-05-05 16:33 46.31972 14.39744 16924 ft 394 kts 233°
2026-05-05 16:33 46.30217 14.36680 17522 ft 396 kts 233°
2026-05-05 16:34 46.28459 14.33613 18035 ft 399 kts 233°
2026-05-05 16:34 46.26701 14.30550 18589 ft 401 kts 233°
2026-05-05 16:34 46.24913 14.27440 19146 ft 403 kts 234°
2026-05-05 16:34 46.23122 14.24326 19643 ft 406 kts 234°
2026-05-05 16:35 46.21320 14.21199 20138 ft 408 kts 234°
2026-05-05 16:35 46.19506 14.18055 20598 ft 411 kts 234°
2026-05-05 16:35 46.17658 14.14852 21062 ft 414 kts 235°
2026-05-05 16:35 46.15822 14.11675 21496 ft 417 kts 235°
2026-05-05 16:36 46.13967 14.08469 21923 ft 420 kts 235°
2026-05-05 16:36 46.12087 14.05221 22338 ft 422 kts 236°
2026-05-05 16:36 46.10183 14.01938 22744 ft 425 kts 236°
2026-05-05 16:36 46.08278 13.98654 23146 ft 428 kts 236°
2026-05-05 16:37 46.06382 13.95391 23522 ft 430 kts 236°
2026-05-05 16:37 46.04469 13.92100 23898 ft 433 kts 236°
2026-05-05 16:37 46.02514 13.88743 24250 ft 436 kts 236°
2026-05-05 16:37 46.00570 13.85408 24599 ft 438 kts 237°
2026-05-05 16:38 45.98613 13.82054 24940 ft 441 kts 237°
2026-05-05 16:38 45.96643 13.78682 25264 ft 443 kts 237°
2026-05-05 16:38 45.94679 13.75324 25577 ft 446 kts 237°
2026-05-05 16:38 45.92661 13.71878 25887 ft 448 kts 237°
2026-05-05 16:39 45.90662 13.68468 26197 ft 450 kts 237°
2026-05-05 16:39 45.88642 13.65027 26479 ft 453 kts 237°
2026-05-05 16:39 45.86617 13.61580 26744 ft 455 kts 237°
2026-05-05 16:39 45.84580 13.58091 27006 ft 456 kts 239°
2026-05-05 16:40 45.82675 13.54479 27262 ft 455 kts 242°
2026-05-05 16:40 45.80833 13.50787 27518 ft 456 kts 243°
2026-05-05 16:40 45.78982 13.47098 27745 ft 459 kts 242°
2026-05-05 16:40 45.77109 13.43396 27987 ft 461 kts 242°
2026-05-05 16:41 45.76488 13.42170 28059 ft 461 kts 242°